Year,Month,Day,Hour,Minute,Value (Times are PST for insolation in W/m^2)
2020,05,20,00,00,0.00
2020,05,20,00,01,0.00
2020,05,20,00,02,0.00
2020,05,20,00,03,0.00
2020,05,20,00,04,0.00
2020,05,20,00,05,0.00
2020,05,20,00,06,0.00
2020,05,20,00,07,0.00
2020,05,20,00,08,0.00
2020,05,20,00,09,0.00
2020,05,20,00,10,0.00
2020,05,20,00,11,0.00
2020,05,20,00,12,0.00
2020,05,20,00,13,0.00
2020,05,20,00,14,0.00
2020,05,20,00,15,0.00
2020,05,20,00,16,0.00
2020,05,20,00,17,0.00
2020,05,20,00,18,0.00
2020,05,20,00,19,0.00
2020,05,20,00,20,0.00
2020,05,20,00,21,0.00
2020,05,20,00,22,0.00
2020,05,20,00,23,0.00
2020,05,20,00,24,0.00
2020,05,20,00,25,0.00
2020,05,20,00,26,0.00
2020,05,20,00,27,0.00
2020,05,20,00,28,0.00
2020,05,20,00,29,0.00
2020,05,20,00,30,0.00
2020,05,20,00,31,0.00
2020,05,20,00,32,0.00
2020,05,20,00,33,0.00
2020,05,20,00,34,0.00
2020,05,20,00,35,0.00
2020,05,20,00,36,0.00
2020,05,20,00,37,0.00
2020,05,20,00,38,0.00
2020,05,20,00,39,0.00
2020,05,20,00,40,0.00
2020,05,20,00,41,0.00
2020,05,20,00,42,0.00
2020,05,20,00,43,0.00
2020,05,20,00,44,0.00
2020,05,20,00,45,0.00
2020,05,20,00,46,0.00
2020,05,20,00,47,0.00
2020,05,20,00,48,0.00
2020,05,20,00,49,0.00
2020,05,20,00,50,0.00
2020,05,20,00,51,0.00
2020,05,20,00,52,0.00
2020,05,20,00,53,0.00
2020,05,20,00,54,0.00
2020,05,20,00,55,0.00
2020,05,20,00,56,0.00
2020,05,20,00,57,0.00
2020,05,20,00,58,0.00
2020,05,20,00,59,0.00
2020,05,20,01,00,0.00
2020,05,20,01,01,0.00
2020,05,20,01,02,0.00
2020,05,20,01,03,0.00
2020,05,20,01,04,0.00
2020,05,20,01,05,0.00
2020,05,20,01,06,0.00
2020,05,20,01,07,0.00
2020,05,20,01,08,0.00
2020,05,20,01,09,0.00
2020,05,20,01,10,0.00
2020,05,20,01,11,0.00
2020,05,20,01,12,0.00
2020,05,20,01,13,0.00
2020,05,20,01,14,0.00
2020,05,20,01,15,0.00
2020,05,20,01,16,0.00
2020,05,20,01,17,0.00
2020,05,20,01,18,0.00
2020,05,20,01,19,0.00
2020,05,20,01,20,0.00
2020,05,20,01,21,0.00
2020,05,20,01,22,0.00
2020,05,20,01,23,0.00
2020,05,20,01,24,0.00
2020,05,20,01,25,0.00
2020,05,20,01,26,0.00
2020,05,20,01,27,0.00
2020,05,20,01,28,0.00
2020,05,20,01,29,0.00
2020,05,20,01,30,0.00
2020,05,20,01,31,0.00
2020,05,20,01,32,0.00
2020,05,20,01,33,0.00
2020,05,20,01,34,0.00
2020,05,20,01,35,0.00
2020,05,20,01,36,0.00
2020,05,20,01,37,0.00
2020,05,20,01,38,0.00
2020,05,20,01,39,0.00
2020,05,20,01,40,0.00
2020,05,20,01,41,0.00
2020,05,20,01,42,0.00
2020,05,20,01,43,0.00
2020,05,20,01,44,0.00
2020,05,20,01,45,0.00
2020,05,20,01,46,0.00
2020,05,20,01,47,0.00
2020,05,20,01,48,0.00
2020,05,20,01,49,0.00
2020,05,20,01,50,0.00
2020,05,20,01,51,0.00
2020,05,20,01,52,0.00
2020,05,20,01,53,0.00
2020,05,20,01,54,0.00
2020,05,20,01,55,0.00
2020,05,20,01,56,0.00
2020,05,20,01,57,0.00
2020,05,20,01,58,0.00
2020,05,20,01,59,0.00
2020,05,20,02,00,0.00
2020,05,20,02,01,0.00
2020,05,20,02,02,0.00
2020,05,20,02,03,0.00
2020,05,20,02,04,0.00
2020,05,20,02,05,0.00
2020,05,20,02,06,0.00
2020,05,20,02,07,0.00
2020,05,20,02,08,0.00
2020,05,20,02,09,0.00
2020,05,20,02,10,0.00
2020,05,20,02,11,0.00
2020,05,20,02,12,0.00
2020,05,20,02,13,0.00
2020,05,20,02,14,0.00
2020,05,20,02,15,0.00
2020,05,20,02,16,0.00
2020,05,20,02,17,0.00
2020,05,20,02,18,0.00
2020,05,20,02,19,0.00
2020,05,20,02,20,0.00
2020,05,20,02,21,0.00
2020,05,20,02,22,0.00
2020,05,20,02,23,0.00
2020,05,20,02,24,0.00
2020,05,20,02,25,0.00
2020,05,20,02,26,0.00
2020,05,20,02,27,0.00
2020,05,20,02,28,0.00
2020,05,20,02,29,0.00
2020,05,20,02,30,0.00
2020,05,20,02,31,0.00
2020,05,20,02,32,0.00
2020,05,20,02,33,0.00
2020,05,20,02,34,0.00
2020,05,20,02,35,0.00
2020,05,20,02,36,0.00
2020,05,20,02,37,0.00
2020,05,20,02,38,0.00
2020,05,20,02,39,0.00
2020,05,20,02,40,0.00
2020,05,20,02,41,0.00
2020,05,20,02,42,0.00
2020,05,20,02,43,0.00
2020,05,20,02,44,0.00
2020,05,20,02,45,0.00
2020,05,20,02,46,0.00
2020,05,20,02,47,0.00
2020,05,20,02,48,0.00
2020,05,20,02,49,0.00
2020,05,20,02,50,0.00
2020,05,20,02,51,0.00
2020,05,20,02,52,0.00
2020,05,20,02,53,0.00
2020,05,20,02,54,0.00
2020,05,20,02,55,0.00
2020,05,20,02,56,0.00
2020,05,20,02,57,0.00
2020,05,20,02,58,0.00
2020,05,20,02,59,0.00
2020,05,20,03,00,0.00
2020,05,20,03,01,0.00
2020,05,20,03,02,0.00
2020,05,20,03,06,0.00
2020,05,20,03,07,0.00
2020,05,20,03,08,0.00
2020,05,20,03,09,0.00
2020,05,20,03,10,0.00
2020,05,20,03,11,0.00
2020,05,20,03,12,0.00
2020,05,20,03,13,0.00
2020,05,20,03,14,0.00
2020,05,20,03,15,0.00
2020,05,20,03,16,0.00
2020,05,20,03,17,0.00
2020,05,20,03,18,0.00
2020,05,20,03,19,0.00
2020,05,20,03,20,0.00
2020,05,20,03,21,0.00
2020,05,20,03,22,0.00
2020,05,20,03,23,0.00
2020,05,20,03,24,0.00
2020,05,20,03,25,0.00
2020,05,20,03,26,0.00
2020,05,20,03,27,0.00
2020,05,20,03,28,0.00
2020,05,20,03,29,0.00
2020,05,20,03,30,0.00
2020,05,20,03,31,0.00
2020,05,20,03,32,0.00
2020,05,20,03,33,0.00
2020,05,20,03,34,0.00
2020,05,20,03,35,0.00
2020,05,20,03,36,0.00
2020,05,20,03,37,0.00
2020,05,20,03,38,0.00
2020,05,20,03,39,0.00
2020,05,20,03,40,0.00
2020,05,20,03,41,0.00
2020,05,20,03,42,0.00
2020,05,20,03,43,0.00
2020,05,20,03,44,0.00
2020,05,20,03,45,0.00
2020,05,20,03,46,0.00
2020,05,20,03,47,0.00
2020,05,20,03,48,0.00
2020,05,20,03,49,0.00
2020,05,20,03,50,0.00
2020,05,20,03,51,0.00
2020,05,20,03,52,0.00
2020,05,20,03,53,0.00
2020,05,20,03,54,0.00
2020,05,20,03,55,0.00
2020,05,20,03,56,0.00
2020,05,20,03,57,0.00
2020,05,20,03,58,0.00
2020,05,20,03,59,0.00
2020,05,20,04,00,0.00
2020,05,20,04,01,0.00
2020,05,20,04,02,0.00
2020,05,20,04,03,0.00
2020,05,20,04,04,0.00
2020,05,20,04,05,0.00
2020,05,20,04,06,0.00
2020,05,20,04,07,0.00
2020,05,20,04,08,0.00
2020,05,20,04,09,0.00
2020,05,20,04,10,0.00
2020,05,20,04,11,0.00
2020,05,20,04,12,0.00
2020,05,20,04,13,0.00
2020,05,20,04,14,0.00
2020,05,20,04,15,0.00
2020,05,20,04,16,0.00
2020,05,20,04,17,0.00
2020,05,20,04,18,0.00
2020,05,20,04,19,0.00
2020,05,20,04,20,0.00
2020,05,20,04,21,0.00
2020,05,20,04,22,0.00
2020,05,20,04,23,0.00
2020,05,20,04,24,0.00
2020,05,20,04,25,0.00
2020,05,20,04,26,0.00
2020,05,20,04,27,0.00
2020,05,20,04,28,0.00
2020,05,20,04,29,0.00
2020,05,20,04,30,0.00
2020,05,20,04,31,0.00
2020,05,20,04,32,0.00
2020,05,20,04,33,0.00
2020,05,20,04,34,0.00
2020,05,20,04,35,0.00
2020,05,20,04,36,0.00
2020,05,20,04,37,0.00
2020,05,20,04,38,0.00
2020,05,20,04,39,0.00
2020,05,20,04,40,0.00
2020,05,20,04,41,0.00
2020,05,20,04,42,0.00
2020,05,20,04,43,0.00
2020,05,20,04,44,0.00
2020,05,20,04,45,0.00
2020,05,20,04,46,0.00
2020,05,20,04,47,0.00
2020,05,20,04,48,0.00
2020,05,20,04,49,0.00
2020,05,20,04,50,0.00
2020,05,20,04,51,0.00
2020,05,20,04,52,0.00
2020,05,20,04,53,0.00
2020,05,20,04,54,0.00
2020,05,20,04,55,0.00
2020,05,20,04,56,0.00
2020,05,20,04,57,0.00
2020,05,20,04,58,0.00
2020,05,20,04,59,0.00
2020,05,20,05,00,0.00
2020,05,20,05,01,0.00
2020,05,20,05,02,0.00
2020,05,20,05,03,0.00
2020,05,20,05,04,0.00
2020,05,20,05,05,0.00
2020,05,20,05,06,0.00
2020,05,20,05,07,0.00
2020,05,20,05,08,0.00
2020,05,20,05,09,0.00
2020,05,20,05,10,0.00
2020,05,20,05,11,0.00
2020,05,20,05,12,0.00
2020,05,20,05,13,0.00
2020,05,20,05,14,0.00
2020,05,20,05,15,0.00
2020,05,20,05,16,0.00
2020,05,20,05,17,0.00
2020,05,20,05,18,0.00
2020,05,20,05,19,0.00
2020,05,20,05,20,0.00
2020,05,20,05,21,0.00
2020,05,20,05,22,0.00
2020,05,20,05,23,0.00
2020,05,20,05,24,0.00
2020,05,20,05,25,0.00
2020,05,20,05,26,0.00
2020,05,20,05,27,0.00
2020,05,20,05,28,0.00
2020,05,20,05,29,0.00
2020,05,20,05,30,0.00
2020,05,20,05,31,0.00
2020,05,20,05,32,0.00
2020,05,20,05,33,0.00
2020,05,20,05,34,0.00
2020,05,20,05,35,0.00
2020,05,20,05,36,0.00
2020,05,20,05,37,0.00
2020,05,20,05,38,0.00
2020,05,20,05,39,0.00
2020,05,20,05,40,0.00
2020,05,20,05,41,0.00
2020,05,20,05,42,2.90
2020,05,20,05,43,5.00
2020,05,20,05,44,5.00
2020,05,20,05,45,5.00
2020,05,20,05,46,5.00
2020,05,20,05,47,5.00
2020,05,20,05,48,5.00
2020,05,20,05,49,6.50
2020,05,20,05,50,7.00
2020,05,20,05,51,7.00
2020,05,20,05,52,7.60
2020,05,20,05,53,9.00
2020,05,20,05,54,9.00
2020,05,20,05,55,9.00
2020,05,20,05,56,10.80
2020,05,20,05,57,11.00
2020,05,20,05,58,11.00
2020,05,20,05,59,11.40
2020,05,20,06,00,12.00
2020,05,20,06,01,12.00
2020,05,20,06,02,12.00
2020,05,20,06,03,12.00
2020,05,20,06,04,12.60
2020,05,20,06,05,14.00
2020,05,20,06,06,14.00
2020,05,20,06,07,14.00
2020,05,20,06,08,15.80
2020,05,20,06,09,16.00
2020,05,20,06,10,16.70
2020,05,20,06,11,18.00
2020,05,20,06,12,18.00
2020,05,20,06,13,18.80
2020,05,20,06,14,19.00
2020,05,20,06,15,19.50
2020,05,20,06,16,21.00
2020,05,20,06,17,21.00
2020,05,20,06,18,21.00
2020,05,20,06,19,21.00
2020,05,20,06,20,21.20
2020,05,20,06,21,23.50
2020,05,20,06,22,25.40
2020,05,20,06,23,26.00
2020,05,20,06,24,26.00
2020,05,20,06,25,26.00
2020,05,20,06,26,26.00
2020,05,20,06,27,25.70
2020,05,20,06,28,25.00
2020,05,20,06,29,25.00
2020,05,20,06,30,25.00
2020,05,20,06,31,25.00
2020,05,20,06,32,26.30
2020,05,20,06,33,28.50
2020,05,20,06,34,30.00
2020,05,20,06,35,31.20
2020,05,20,06,36,32.70
2020,05,20,06,37,34.70
2020,05,20,06,38,39.40
2020,05,20,06,39,42.60
2020,05,20,06,40,44.90
2020,05,20,06,41,46.60
2020,05,20,06,42,47.00
2020,05,20,06,43,46.10
2020,05,20,06,44,46.00
2020,05,20,06,45,46.30
2020,05,20,06,46,47.00
2020,05,20,06,47,47.00
2020,05,20,06,48,46.20
2020,05,20,06,49,42.30
2020,05,20,06,50,40.00
2020,05,20,06,51,40.70
2020,05,20,06,52,43.80
2020,05,20,06,53,46.70
2020,05,20,06,54,48.60
2020,05,20,06,55,51.10
2020,05,20,06,56,55.00
2020,05,20,06,57,58.70
2020,05,20,06,58,61.50
2020,05,20,06,59,63.00
2020,05,20,07,00,64.60
2020,05,20,07,01,66.90
2020,05,20,07,02,67.50
2020,05,20,07,03,69.40
2020,05,20,07,04,71.10
2020,05,20,07,05,73.40
2020,05,20,07,06,76.60
2020,05,20,07,07,81.20
2020,05,20,07,08,83.00
2020,05,20,07,09,82.20
2020,05,20,07,10,79.90
2020,05,20,07,11,77.60
2020,05,20,07,12,77.00
2020,05,20,07,13,77.00
2020,05,20,07,14,77.00
2020,05,20,07,15,76.60
2020,05,20,07,16,74.80
2020,05,20,07,17,74.00
2020,05,20,07,18,72.30
2020,05,20,07,19,69.80
2020,05,20,07,20,69.00
2020,05,20,07,21,69.00
2020,05,20,07,22,69.00
2020,05,20,07,23,67.50
2020,05,20,07,24,65.20
2020,05,20,07,25,65.30
2020,05,20,07,26,67.00
2020,05,20,07,27,68.50
2020,05,20,07,28,71.30
2020,05,20,07,29,73.60
2020,05,20,07,30,77.10
2020,05,20,07,31,81.80
2020,05,20,07,32,85.50
2020,05,20,07,33,88.00
2020,05,20,07,34,88.00
2020,05,20,07,35,88.00
2020,05,20,07,36,90.90
2020,05,20,07,37,94.00
2020,05,20,07,38,98.80
2020,05,20,07,39,104.50
2020,05,20,07,40,110.90
2020,05,20,07,41,115.40
2020,05,20,07,42,121.10
2020,05,20,07,43,128.00
2020,05,20,07,44,132.80
2020,05,20,07,45,134.50
2020,05,20,07,46,136.40
2020,05,20,07,47,140.40
2020,05,20,07,48,146.40
2020,05,20,07,49,153.90
2020,05,20,07,50,156.80
2020,05,20,07,51,158.00
2020,05,20,07,52,160.80
2020,05,20,07,53,164.60
2020,05,20,07,54,171.80
2020,05,20,07,55,177.50
2020,05,20,07,56,183.20
2020,05,20,07,57,190.10
2020,05,20,07,58,197.90
2020,05,20,07,59,205.90
2020,05,20,08,00,211.40
2020,05,20,08,01,214.60
2020,05,20,08,02,214.60
2020,05,20,08,03,209.40
2020,05,20,08,04,201.00
2020,05,20,08,05,189.20
2020,05,20,08,06,178.20
2020,05,20,08,07,173.40
2020,05,20,08,08,174.00
2020,05,20,08,09,172.80
2020,05,20,08,10,164.60
2020,05,20,08,11,149.80
2020,05,20,08,12,138.00
2020,05,20,08,13,133.30
2020,05,20,08,14,132.90
2020,05,20,08,15,134.60
2020,05,20,08,16,136.60
2020,05,20,08,17,137.00
2020,05,20,08,18,137.80
2020,05,20,08,19,141.40
2020,05,20,08,20,143.00
2020,05,20,08,21,145.30
2020,05,20,08,22,146.00
2020,05,20,08,23,141.90
2020,05,20,08,24,137.90
2020,05,20,08,25,134.60
2020,05,20,08,26,134.00
2020,05,20,08,27,134.70
2020,05,20,08,28,135.00
2020,05,20,08,29,137.20
2020,05,20,08,30,139.00
2020,05,20,08,31,139.80
2020,05,20,08,32,142.60
2020,05,20,08,33,145.40
2020,05,20,08,34,150.20
2020,05,20,08,35,157.10
2020,05,20,08,36,165.00
2020,05,20,08,37,172.20
2020,05,20,08,38,174.00
2020,05,20,08,39,172.50
2020,05,20,08,40,169.40
2020,05,20,08,41,165.00
2020,05,20,08,42,166.90
2020,05,20,08,43,174.10
2020,05,20,08,44,182.20
2020,05,20,08,45,190.90
2020,05,20,08,46,196.60
2020,05,20,08,47,200.80
2020,05,20,08,48,204.60
2020,05,20,08,49,205.10
2020,05,20,08,50,202.70
2020,05,20,08,51,200.40
2020,05,20,08,52,201.90
2020,05,20,08,53,204.60
2020,05,20,08,54,208.40
2020,05,20,08,55,211.90
2020,05,20,08,56,213.00
2020,05,20,08,57,210.00
2020,05,20,08,58,205.90
2020,05,20,08,59,203.60
2020,05,20,09,00,200.90
2020,05,20,09,01,199.00
2020,05,20,09,02,194.40
2020,05,20,09,03,187.30
2020,05,20,09,04,178.60
2020,05,20,09,05,170.20
2020,05,20,09,06,163.00
2020,05,20,09,07,158.00
2020,05,20,09,08,155.30
2020,05,20,09,09,155.00
2020,05,20,09,10,156.10
2020,05,20,09,11,158.50
2020,05,20,09,12,160.00
2020,05,20,09,13,157.80
2020,05,20,09,14,155.30
2020,05,20,09,15,151.60
2020,05,20,09,16,145.70
2020,05,20,09,17,143.40
2020,05,20,09,18,142.80
2020,05,20,09,19,146.20
2020,05,20,09,20,150.10
2020,05,20,09,21,154.40
2020,05,20,09,22,156.30
2020,05,20,09,23,159.30
2020,05,20,09,24,162.00
2020,05,20,09,25,160.80
2020,05,20,09,26,156.30
2020,05,20,09,27,147.40
2020,05,20,09,28,133.80
2020,05,20,09,29,124.30
2020,05,20,09,30,115.60
2020,05,20,09,31,109.40
2020,05,20,09,32,104.80
2020,05,20,09,33,102.20
2020,05,20,09,34,102.00
2020,05,20,09,35,102.70
2020,05,20,09,36,104.50
2020,05,20,09,37,107.50
2020,05,20,09,38,110.50
2020,05,20,09,39,112.90
2020,05,20,09,40,113.20
2020,05,20,09,41,114.00
2020,05,20,09,42,115.00
2020,05,20,09,43,116.00
2020,05,20,09,44,116.00
2020,05,20,09,45,117.90
2020,05,20,09,46,118.40
2020,05,20,09,47,120.00
2020,05,20,09,48,120.00
2020,05,20,09,49,120.00
2020,05,20,09,50,118.30
2020,05,20,09,51,120.00
2020,05,20,09,52,121.50
2020,05,20,09,53,123.80
2020,05,20,09,54,126.10
2020,05,20,09,55,127.70
2020,05,20,09,56,132.80
2020,05,20,09,57,139.50
2020,05,20,09,58,145.80
2020,05,20,09,59,153.80
2020,05,20,10,00,162.10
2020,05,20,10,01,171.30
2020,05,20,10,02,181.60
2020,05,20,10,03,193.50
2020,05,20,10,04,204.70
2020,05,20,10,05,214.10
2020,05,20,10,06,220.90
2020,05,20,10,07,225.80
2020,05,20,10,08,228.90
2020,05,20,10,09,230.60
2020,05,20,10,10,234.60
2020,05,20,10,11,236.40
2020,05,20,10,12,235.20
2020,05,20,10,13,230.30
2020,05,20,10,14,223.30
2020,05,20,10,15,218.00
2020,05,20,10,16,219.80
2020,05,20,10,17,230.00
2020,05,20,10,18,251.50
2020,05,20,10,19,285.50
2020,05,20,10,20,335.00
2020,05,20,10,21,378.60
2020,05,20,10,22,428.90
2020,05,20,10,23,445.00
2020,05,20,10,24,453.30
2020,05,20,10,25,459.60
2020,05,20,10,26,470.00
2020,05,20,10,27,462.00
2020,05,20,10,28,602.80
2020,05,20,10,29,807.00
2020,05,20,10,30,800.00
2020,05,20,10,31,494.40
2020,05,20,10,32,360.90
2020,05,20,10,33,348.00
2020,05,20,10,34,348.00
2020,05,20,10,35,453.60
2020,05,20,10,36,496.20
2020,05,20,10,37,476.00
2020,05,20,10,38,574.70
2020,05,20,10,39,555.00
2020,05,20,10,40,555.00
2020,05,20,10,41,555.00
2020,05,20,10,42,595.30
2020,05,20,10,43,694.30
2020,05,20,10,44,708.00
2020,05,20,10,45,783.80
2020,05,20,10,46,1053.80
2020,05,20,10,47,1106.00
2020,05,20,10,48,720.30
2020,05,20,10,49,572.00
2020,05,20,10,50,596.20
2020,05,20,10,51,578.60
2020,05,20,10,52,570.80
2020,05,20,10,53,557.00
2020,05,20,10,54,557.00
2020,05,20,10,55,633.90
2020,05,20,10,56,637.70
2020,05,20,10,57,663.00
2020,05,20,10,58,756.80
2020,05,20,10,59,861.00
2020,05,20,11,00,654.00
2020,05,20,11,01,573.80
2020,05,20,11,02,519.80
2020,05,20,11,03,473.10
2020,05,20,11,04,471.90
2020,05,20,11,05,503.40
2020,05,20,11,06,490.00
2020,05,20,11,07,476.10
2020,05,20,11,08,475.60
2020,05,20,11,09,480.50
2020,05,20,11,10,488.50
2020,05,20,11,11,497.90
2020,05,20,11,12,523.70
2020,05,20,11,13,522.80
2020,05,20,11,14,508.70
2020,05,20,11,15,502.20
2020,05,20,11,16,495.10
2020,05,20,11,17,488.60
2020,05,20,11,18,488.60
2020,05,20,11,19,497.30
2020,05,20,11,20,515.50
2020,05,20,11,21,556.80
2020,05,20,11,22,561.80
2020,05,20,11,23,516.30
2020,05,20,11,24,488.00
2020,05,20,11,25,469.40
2020,05,20,11,26,451.30
2020,05,20,11,27,434.70
2020,05,20,11,28,418.90
2020,05,20,11,29,403.20
2020,05,20,11,30,388.30
2020,05,20,11,31,374.50
2020,05,20,11,32,362.50
2020,05,20,11,33,350.50
2020,05,20,11,34,339.60
2020,05,20,11,35,327.80
2020,05,20,11,36,316.90
2020,05,20,11,37,306.80
2020,05,20,11,38,300.40
2020,05,20,11,39,294.80
2020,05,20,11,40,289.60
2020,05,20,11,41,287.20
2020,05,20,11,42,287.00
2020,05,20,11,43,288.30
2020,05,20,11,44,290.60
2020,05,20,11,45,291.00
2020,05,20,11,46,288.70
2020,05,20,11,47,287.20
2020,05,20,11,48,285.10
2020,05,20,11,49,282.60
2020,05,20,11,50,280.30
2020,05,20,11,51,280.00
2020,05,20,11,52,279.70
2020,05,20,11,53,279.00
2020,05,20,11,54,279.00
2020,05,20,11,55,279.00
2020,05,20,11,56,279.70
2020,05,20,11,57,281.00
2020,05,20,11,58,281.00
2020,05,20,11,59,279.40
2020,05,20,12,00,277.60
2020,05,20,12,01,273.50
2020,05,20,12,02,271.60
2020,05,20,12,03,267.70
2020,05,20,12,04,262.90
2020,05,20,12,05,258.60
2020,05,20,12,06,252.60
2020,05,20,12,07,248.90
2020,05,20,12,08,245.20
2020,05,20,12,09,243.40
2020,05,20,12,10,243.00
2020,05,20,12,11,243.00
2020,05,20,12,12,243.10
2020,05,20,12,13,244.50
2020,05,20,12,14,246.90
2020,05,20,12,15,249.70
2020,05,20,12,16,255.40
2020,05,20,12,17,261.20
2020,05,20,12,18,270.00
2020,05,20,12,19,277.50
2020,05,20,12,20,282.80
2020,05,20,12,21,286.20
2020,05,20,12,22,285.40
2020,05,20,12,23,285.10
2020,05,20,12,24,288.10
2020,05,20,12,25,294.50
2020,05,20,12,26,302.30
2020,05,20,12,27,310.20
2020,05,20,12,28,319.80
2020,05,20,12,29,328.60
2020,05,20,12,30,337.50
2020,05,20,12,31,344.80
2020,05,20,12,32,350.00
2020,05,20,12,33,352.60
2020,05,20,12,34,354.60
2020,05,20,12,35,355.40
2020,05,20,12,36,359.60
2020,05,20,12,37,363.40
2020,05,20,12,38,366.50
2020,05,20,12,39,368.30
2020,05,20,12,40,369.00
2020,05,20,12,41,367.00
2020,05,20,12,42,365.50
2020,05,20,12,43,363.20
2020,05,20,12,44,360.90
2020,05,20,12,45,360.00
2020,05,20,12,46,359.20
2020,05,20,12,47,358.80
2020,05,20,12,48,356.50
2020,05,20,12,49,354.20
2020,05,20,12,50,352.50
2020,05,20,12,51,350.60
2020,05,20,12,52,346.60
2020,05,20,12,53,342.90
2020,05,20,12,54,340.40
2020,05,20,12,55,337.70
2020,05,20,12,56,332.10
2020,05,20,12,57,323.80
2020,05,20,12,58,313.90
2020,05,20,12,59,301.00
2020,05,20,13,00,292.90
2020,05,20,13,01,284.00
2020,05,20,13,02,276.00
2020,05,20,13,03,270.20
2020,05,20,13,04,265.40
2020,05,20,13,05,265.30
2020,05,20,13,06,268.50
2020,05,20,13,07,278.50
2020,05,20,13,08,293.80
2020,05,20,13,09,309.50
2020,05,20,13,10,326.00
2020,05,20,13,11,335.00
2020,05,20,13,12,339.70
2020,05,20,13,13,342.00
2020,05,20,13,14,346.00
2020,05,20,13,15,355.20
2020,05,20,13,16,358.90
2020,05,20,13,17,359.00
2020,05,20,13,18,359.40
2020,05,20,13,19,360.00
2020,05,20,13,20,360.00
2020,05,20,13,21,361.60
2020,05,20,13,22,364.10
2020,05,20,13,23,365.50
2020,05,20,13,24,364.00
2020,05,20,13,25,365.60
2020,05,20,13,26,373.30
2020,05,20,13,27,382.00
2020,05,20,13,28,410.60
2020,05,20,13,29,465.50
2020,05,20,13,30,527.20
2020,05,20,13,31,565.40
2020,05,20,13,32,595.50
2020,05,20,13,33,597.10
2020,05,20,13,34,597.30
2020,05,20,13,35,600.30
2020,05,20,13,36,624.70
2020,05,20,13,37,597.20
2020,05,20,13,38,544.80
2020,05,20,13,39,510.20
2020,05,20,13,40,494.60
2020,05,20,13,41,499.20
2020,05,20,13,42,506.70
2020,05,20,13,43,506.40
2020,05,20,13,44,498.00
2020,05,20,13,45,490.80
2020,05,20,13,46,496.00
2020,05,20,13,47,502.40
2020,05,20,13,48,495.00
2020,05,20,13,49,485.60
2020,05,20,13,50,483.00
2020,05,20,13,51,510.60
2020,05,20,13,52,570.40
2020,05,20,13,53,552.00
2020,05,20,13,54,552.00
2020,05,20,13,55,661.80
2020,05,20,13,56,721.00
2020,05,20,13,57,638.20
2020,05,20,13,58,557.60
2020,05,20,13,59,556.90
2020,05,20,14,00,541.80
2020,05,20,14,01,520.60
2020,05,20,14,02,500.80
2020,05,20,14,03,479.10
2020,05,20,14,04,434.00
2020,05,20,14,05,415.60
2020,05,20,14,06,402.10
2020,05,20,14,07,392.70
2020,05,20,14,08,379.80
2020,05,20,14,09,369.20
2020,05,20,14,10,368.00
2020,05,20,14,11,372.40
2020,05,20,14,12,374.00
2020,05,20,14,13,375.40
2020,05,20,14,14,383.60
2020,05,20,14,15,406.80
2020,05,20,14,16,408.90
2020,05,20,14,17,395.80
2020,05,20,14,18,377.70
2020,05,20,14,19,363.30
2020,05,20,14,20,353.20
2020,05,20,14,21,345.20
2020,05,20,14,22,341.00
2020,05,20,14,23,341.90
2020,05,20,14,24,346.00
2020,05,20,14,25,351.80
2020,05,20,14,26,361.50
2020,05,20,14,27,369.80
2020,05,20,14,28,376.10
2020,05,20,14,29,383.00
2020,05,20,14,30,383.70
2020,05,20,14,31,381.50
2020,05,20,14,32,381.00
2020,05,20,14,33,381.00
2020,05,20,14,34,381.00
2020,05,20,14,35,384.00
2020,05,20,14,36,391.50
2020,05,20,14,37,414.80
2020,05,20,14,38,444.60
2020,05,20,14,39,504.20
2020,05,20,14,40,469.20
2020,05,20,14,41,451.80
2020,05,20,14,42,433.80
2020,05,20,14,43,507.80
2020,05,20,14,44,454.00
2020,05,20,14,45,421.40
2020,05,20,14,46,438.80
2020,05,20,14,47,452.00
2020,05,20,14,48,503.90
2020,05,20,14,49,524.00
2020,05,20,14,50,532.60
2020,05,20,14,51,606.00
2020,05,20,14,52,606.00
2020,05,20,14,53,606.00
2020,05,20,14,54,899.30
2020,05,20,14,55,1025.00
2020,05,20,14,56,1029.90
2020,05,20,14,57,1069.00
2020,05,20,14,58,1057.90
2020,05,20,14,59,1048.90
2020,05,20,15,00,1038.30
2020,05,20,15,01,1022.20
2020,05,20,15,02,1007.30
2020,05,20,15,03,998.00
2020,05,20,15,04,993.70
2020,05,20,15,05,988.00
2020,05,20,15,06,988.00
2020,05,20,15,07,951.30
2020,05,20,15,08,925.40
2020,05,20,15,09,923.00
2020,05,20,15,10,923.00
2020,05,20,15,11,887.20
2020,05,20,15,12,864.20
2020,05,20,15,13,856.50
2020,05,20,15,14,850.00
2020,05,20,15,15,843.90
2020,05,20,15,16,838.60
2020,05,20,15,17,834.60
2020,05,20,15,18,830.60
2020,05,20,15,19,828.10
2020,05,20,15,20,825.40
2020,05,20,15,21,822.30
2020,05,20,15,22,821.90
2020,05,20,15,23,826.20
2020,05,20,15,24,833.60
2020,05,20,15,25,845.00
2020,05,20,15,26,858.00
2020,05,20,15,27,822.30
2020,05,20,15,28,756.00
2020,05,20,15,29,834.00
2020,05,20,15,30,904.00
2020,05,20,15,31,845.50
2020,05,20,15,32,731.20
2020,05,20,15,33,399.00
2020,05,20,15,34,399.00
2020,05,20,15,35,400.30
2020,05,20,15,36,401.00
2020,05,20,15,37,899.70
2020,05,20,15,38,839.80
2020,05,20,15,39,819.80
2020,05,20,15,40,818.90
2020,05,20,15,41,823.10
2020,05,20,15,42,824.00
2020,05,20,15,43,821.30
2020,05,20,15,44,775.20
2020,05,20,15,45,722.00
2020,05,20,15,46,795.50
2020,05,20,15,47,847.60
2020,05,20,15,48,823.80
2020,05,20,15,49,827.20
2020,05,20,15,50,807.90
2020,05,20,15,51,833.80
2020,05,20,15,52,863.00
2020,05,20,15,53,864.50
2020,05,20,15,54,857.90
2020,05,20,15,55,841.60
2020,05,20,15,56,841.90
2020,05,20,15,57,850.50
2020,05,20,15,58,856.00
2020,05,20,15,59,856.00
2020,05,20,16,00,856.00
2020,05,20,16,01,856.00
2020,05,20,16,02,665.20
2020,05,20,16,03,356.00
2020,05,20,16,04,401.00
2020,05,20,16,05,481.50
2020,05,20,16,06,501.00
2020,05,20,16,07,478.30
2020,05,20,16,08,524.00
2020,05,20,16,09,524.00
2020,05,20,16,10,524.00
2020,05,20,16,11,524.00
2020,05,20,16,12,544.40
2020,05,20,16,13,728.00
2020,05,20,16,14,728.00
2020,05,20,16,15,728.00
2020,05,20,16,16,732.80
2020,05,20,16,17,740.60
2020,05,20,16,18,742.00
2020,05,20,16,19,742.00
2020,05,20,16,20,742.00
2020,05,20,16,21,712.80
2020,05,20,16,22,687.60
2020,05,20,16,23,686.20
2020,05,20,16,24,681.80
2020,05,20,16,25,679.80
2020,05,20,16,26,677.20
2020,05,20,16,27,675.00
2020,05,20,16,28,672.10
2020,05,20,16,29,671.00
2020,05,20,16,30,669.70
2020,05,20,16,31,667.40
2020,05,20,16,32,664.60
2020,05,20,16,33,661.80
2020,05,20,16,34,659.50
2020,05,20,16,35,657.30
2020,05,20,16,36,654.00
2020,05,20,16,37,652.80
2020,05,20,16,38,648.70
2020,05,20,16,39,645.80
2020,05,20,16,40,642.80
2020,05,20,16,41,640.20
2020,05,20,16,42,639.60
2020,05,20,16,43,637.10
2020,05,20,16,44,634.00
2020,05,20,16,45,631.70
2020,05,20,16,46,629.50
2020,05,20,16,47,628.80
2020,05,20,16,48,623.60
2020,05,20,16,49,620.80
2020,05,20,16,50,617.90
2020,05,20,16,51,617.00
2020,05,20,16,52,613.80
2020,05,20,16,53,611.80
2020,05,20,16,54,609.00
2020,05,20,16,55,605.60
2020,05,20,16,56,605.00
2020,05,20,16,57,603.70
2020,05,20,16,58,603.00
2020,05,20,16,59,602.80
2020,05,20,17,00,600.50
2020,05,20,17,01,599.00
2020,05,20,17,02,598.50
2020,05,20,17,03,595.20
2020,05,20,17,04,592.30
2020,05,20,17,05,590.40
2020,05,20,17,06,586.40
2020,05,20,17,07,583.70
2020,05,20,17,08,580.90
2020,05,20,17,09,577.90
2020,05,20,17,10,575.20
2020,05,20,17,11,573.00
2020,05,20,17,12,572.40